Waarnemingen

Advertentie
Mijn weer
Nordkoster, Zweden (2500): temperatuur & dauwpunt: 13.08.2019 23:00:00 - 19.08.2019 23:00:00 (CEST)Nordkoster, Zweden (2500): windsnelheid & windstoten: 13.08.2019 23:00:00 - 19.08.2019 23:00:00 (CEST)Nordkoster, Zweden (2500): windrichting: 13.08.2019 23:00:00 - 19.08.2019 23:00:00 (CEST)Nordkoster, Zweden (2500): luchtdruk: 13.08.2019 23:00:00 - 19.08.2019 23:00:00 (CEST)Nordkoster, Zweden (2500): zicht: 13.08.2019 23:00:00 - 19.08.2019 23:00:00 (CEST)Nordkoster, Zweden (2500): neerslag: 13.08.2019 23:00:00 - 19.08.2019 23:00:00 (CEST)
Datum & Tijd tt [°C] td [°C] ff [km/u] ff [kn] fx [km/u] fx [kn] dd ppp [hPa] vv [km] rr [mm]
19.08.2019 23:00:00 16,1 13,6 29 16 51 28 ZW 1008,9 12 0,0
19.08.2019 22:00:00 16,2 13,3 32 18 47 25 ZW 1008,7 13 0,0
19.08.2019 21:00:00 16,2 13,3 32 17 53 29 ZW 1008,2 14 0,0
19.08.2019 20:00:00 16,5 13,0 35 19 52 28 ZW 1007,5 14 0,0
19.08.2019 19:00:00 17,0 12,9 37 20 54 29 ZW 1007,3 14 0,0
19.08.2019 18:00:00 17,2 12,7 35 19 52 28 ZZW 1006,8 13 0,0
19.08.2019 17:00:00 17,5 11,5 37 20 54 29 ZZW 1006,4 15 0,0
19.08.2019 16:00:00 17,3 12,8 36 19 - - ZZW 1006,1 12 0,0
19.08.2019 15:00:00 18,2 12,9 33 18 51 28 ZW 1005,5 15 0,0
19.08.2019 14:00:00 18,1 13,2 34 18 - - ZW 1005,1 14 0,0
19.08.2019 13:00:00 17,7 12,6 36 19 52 28 ZW 1004,6 18 0,0
19.08.2019 12:00:00 15,6 12,2 39 21 56 31 ZZW 1004,1 11 0,2
19.08.2019 11:00:00 14,6 12,3 30 16 54 29 ZW 1003,8 8 0,1
19.08.2019 10:00:00 17,1 14,2 31 17 51 28 ZZW 1003,5 13 0,0
19.08.2019 09:00:00 16,7 14,0 36 19 - - ZZW 1003,3 13 0,0
19.08.2019 08:00:00 16,2 13,1 33 18 48 26 ZW 1002,8 13 0,0
19.08.2019 07:00:00 15,7 12,4 27 14 39 21 ZW 1002,6 15 0,0
19.08.2019 06:00:00 15,2 12,0 19 10 35 19 ZW 1002,2 16 0,0
19.08.2019 05:00:00 15,1 11,9 23 13 39 21 WZW 1001,6 18 0,0
19.08.2019 04:00:00 15,1 12,8 23 12 37 20 ZW 1001,3 21 0,0
19.08.2019 03:00:00 14,8 12,5 23 12 35 19 ZW 1001,4 30 0,0
19.08.2019 02:00:00 14,9 12,0 15 8 25 13 WZW 1001,3 24 0,0
19.08.2019 01:00:00 14,7 12,0 17 9 32 17 WZW 1000,9 24 0,0
19.08.2019 00:00:00 14,3 12,2 22 12 - - WZW 1000,9 21 1,3
18.08.2019 23:00:00 14,3 12,3 20 11 34 19 ZW 1000,9 19 0,7
18.08.2019 22:00:00 14,9 12,8 18 10 29 16 ZW 1000,9 20 0,4
18.08.2019 21:00:00 15,2 11,8 20 11 27 14 ZW 1000,8 19 0,0
18.08.2019 20:00:00 16,3 13,2 19 10 28 15 Z 1000,9 21 0,0
18.08.2019 19:00:00 16,5 14,0 19 11 28 15 Z 1001,2 17 0,0
18.08.2019 18:00:00 16,9 13,8 19 11 32 17 Z 1001,8 22 0,0
18.08.2019 17:00:00 17,0 14,3 19 10 31 17 ZZO 1002,0 16 0,0
18.08.2019 16:00:00 16,2 14,6 17 9 27 14 ZZO 1002,3 12 0,4
18.08.2019 15:00:00 16,6 13,7 18 10 24 13 Z 1002,9 14 0,0
18.08.2019 14:00:00 16,9 11,8 14 7 19 11 Z 1003,0 21 0,0
18.08.2019 13:00:00 17,1 12,6 11 6 22 12 Z 1003,2 19 0,0
18.08.2019 12:00:00 17,4 12,5 11 6 18 10 Z 1003,3 19 0,0
18.08.2019 11:00:00 16,8 11,7 15 8 22 12 ZZW 1003,2 20 0,0
18.08.2019 10:00:00 16,8 11,7 15 8 22 12 ZZW 1003,2 18 0,0
18.08.2019 09:00:00 16,7 11,8 13 7 21 11 ZZW 1003,0 15 0,0
18.08.2019 08:00:00 16,1 11,3 12 6 24 13 ZW 1002,9 17 0,0
18.08.2019 07:00:00 15,3 11,1 12 7 26 14 WZW 1002,9 15 0,0
18.08.2019 06:00:00 15,1 10,7 19 10 34 18 WZW 1002,7 15 0,0
18.08.2019 05:00:00 15,3 10,9 19 10 34 18 WZW 1002,5 14 0,0
18.08.2019 04:00:00 15,5 11,7 23 12 35 19 ZW 1002,5 13 0,0
18.08.2019 03:00:00 15,8 13,5 24 13 39 21 ZW 1002,2 11 0,0
18.08.2019 02:00:00 16,1 14,1 28 15 41 22 ZW 1001,9 10 0,0
18.08.2019 01:00:00 16,3 14,3 29 15 43 23 ZW 1001,8 10 0,0
18.08.2019 00:00:00 16,2 14,4 28 15 45 24 ZW 1001,4 9 0,0
17.08.2019 23:00:00 16,4 14,4 31 17 48 26 ZW 1001,1 10 0,0
17.08.2019 22:00:00 16,4 14,6 31 17 45 24 ZZW 1000,8 10 0,0
17.08.2019 21:00:00 16,6 14,4 26 14 41 22 ZW 1000,3 12 0,0
17.08.2019 20:00:00 16,8 15,0 29 16 40 22 ZZW 1000,6 11 0,0
17.08.2019 19:00:00 17,0 15,9 30 16 45 24 ZZW 1000,4 11 0,0
17.08.2019 18:00:00 16,5 15,5 34 18 55 30 ZZW 1000,0 11 0,3
17.08.2019 17:00:00 16,3 15,7 39 21 61 33 Z 999,5 4,1 1,0
17.08.2019 16:00:00 16,1 15,5 48 26 67 36 Z 999,5 6 0,4
17.08.2019 15:00:00 16,0 15,4 46 25 75 40 Z 999,8 4,1 0,7
17.08.2019 14:00:00 16,2 15,1 53 29 77 42 Z 999,8 4,2 1,4
17.08.2019 13:00:00 16,3 15,2 53 29 73 40 Z 1000,3 6 0,8
17.08.2019 12:00:00 16,1 14,6 46 25 70 38 ZZO 1001,3 5 0,9
17.08.2019 11:00:00 15,6 14,1 36 20 56 31 ZZO 1001,9 9 0,6
17.08.2019 10:00:00 15,1 13,6 34 19 - - ZO 1002,5 12 0,2
17.08.2019 09:00:00 14,8 13,5 31 17 48 26 ZO 1003,1 9 0,6
17.08.2019 08:00:00 14,7 13,1 29 16 43 23 ZO 1003,8 15 0,2
17.08.2019 07:00:00 14,4 12,4 24 13 35 19 ZO 1004,4 13 0,1
17.08.2019 06:00:00 15,1 12,2 23 13 45 25 ZO 1005,0 19 0,0
17.08.2019 05:00:00 16,5 11,8 35 19 49 27 Z 1005,3 28 0,0
17.08.2019 04:00:00 16,5 11,2 35 19 46 25 Z 1006,0 30 0,0
17.08.2019 03:00:00 16,2 10,7 28 15 42 23 Z 1006,8 31 0,0
17.08.2019 02:00:00 16,1 11,9 29 16 41 22 ZZW 1007,4 22 0,0
17.08.2019 01:00:00 16,0 11,2 28 15 41 22 ZW 1007,8 24 0,0
17.08.2019 00:00:00 15,9 11,7 29 16 45 25 ZW 1008,3 21 0,0
16.08.2019 23:00:00 15,9 11,3 30 16 49 27 ZW 1008,3 17 0,0
16.08.2019 22:00:00 16,0 11,4 33 18 50 27 ZW 1008,4 19 0,0
16.08.2019 21:00:00 15,9 10,6 32 17 49 26 ZW 1008,1 19 0,0
16.08.2019 20:00:00 15,9 10,6 31 17 47 25 ZZW 1008,1 19 0,0
16.08.2019 19:00:00 16,2 10,7 34 18 45 24 ZZW 1008,1 20 0,0
16.08.2019 18:00:00 16,6 12,4 31 17 42 23 ZZW 1007,7 18 0,0
16.08.2019 17:00:00 16,7 12,4 27 15 36 19 Z 1007,8 27 0,0
16.08.2019 16:00:00 17,7 13,4 24 13 33 18 ZZW 1007,9 37 0,0
16.08.2019 15:00:00 16,5 14,1 21 11 32 17 ZZW 1008,0 14 0,0
16.08.2019 14:00:00 17,7 13,2 23 13 36 19 ZZW 1007,9 26 0,0
16.08.2019 13:00:00 18,2 14,5 21 11 37 20 ZW 1007,8 24 0,0
16.08.2019 12:00:00 18,2 14,3 22 12 - - ZZW 1007,4 43 0,0
16.08.2019 11:00:00 18,0 14,3 20 11 29 16 ZW 1007,3 41 0,0
16.08.2019 10:00:00 17,2 15,4 16 9 - - ZW 1007,1 26 0,0
16.08.2019 09:00:00 16,2 14,9 17 9 25 13 ZZO 1006,8 21 0,0
16.08.2019 08:00:00 15,8 14,3 17 9 24 13 ZZO 1006,6 31 0,0
16.08.2019 07:00:00 14,8 13,5 16 9 - - ZO 1006,5 33 0,0
16.08.2019 06:00:00 14,3 13,0 13 7 21 11 ZO 1006,5 37 0,0
16.08.2019 05:00:00 14,2 12,8 13 7 23 12 ZO 1006,4 37 0,0
16.08.2019 04:00:00 14,1 12,5 13 7 20 11 ZO 1006,5 14 0,0
16.08.2019 03:00:00 13,8 12,2 14 8 24 13 OZO 1006,8 47 0,0
16.08.2019 02:00:00 13,7 12,4 14 7 32 17 ZO 1006,9 34 0,2
16.08.2019 01:00:00 15,6 10,8 19 10 29 16 ZO 1006,8 48 0,0
16.08.2019 00:00:00 15,7 11,3 16 9 23 13 OZO 1007,0 48 0,0
15.08.2019 23:00:00 15,9 12,1 13 7 22 12 ZO 1007,2 39 0,0
15.08.2019 22:00:00 16,2 11,8 13 7 19 10 OZO 1007,2 47 0,0
15.08.2019 21:00:00 16,6 11,7 11 6 - - ZO 1007,3 45 0,0
15.08.2019 20:00:00 17,0 11,3 27 14 37 20 ZO 1007,0 34 0,0
15.08.2019 19:00:00 17,5 11,3 24 13 35 19 OZO 1007,1 49 0,0
15.08.2019 18:00:00 18,0 11,6 10 5 24 13 OZO 1007,3 43 0,0
15.08.2019 17:00:00 17,8 11,6 13 7 - - OZO 1007,9 32 0,0
15.08.2019 16:00:00 16,5 11,6 18 10 28 15 O 1008,0 30 0,0
15.08.2019 15:00:00 14,3 11,5 17 9 30 16 OZO 1008,4 32 0,0
15.08.2019 14:00:00 13,7 11,4 22 12 40 22 ZO 1008,8 11 0,1
15.08.2019 13:00:00 15,6 11,4 27 15 35 19 Z 1008,5 39 0,0
15.08.2019 12:00:00 16,7 9,6 19 10 29 15 Z 1008,6 38 0,0
15.08.2019 11:00:00 17,2 10,1 17 9 25 14 Z 1008,8 45 0,0
15.08.2019 10:00:00 16,9 9,3 14 8 - - ZZW 1008,9 44 0,0
15.08.2019 09:00:00 16,3 9,7 16 9 26 14 ZZW 1008,9 41 0,0
15.08.2019 08:00:00 15,6 8,1 16 9 27 14 ZW 1008,9 50 0,0
15.08.2019 07:00:00 14,8 8,1 14 8 25 13 ZW 1008,6 42 0,0
15.08.2019 06:00:00 14,6 8,8 16 9 27 14 ZW 1008,4 43 0,0
15.08.2019 05:00:00 14,6 9,2 16 8 28 15 ZW 1008,5 45 0,0
15.08.2019 04:00:00 14,9 8,6 16 9 31 17 WZW 1008,8 36 0,0
15.08.2019 03:00:00 15,3 8,8 18 10 31 17 WZW 1008,8 41 0,0
15.08.2019 02:00:00 15,6 8,8 19 11 34 18 WZW 1008,8 46 0,0
15.08.2019 01:00:00 15,9 10,0 23 12 34 19 WZW 1008,6 37 0,0
15.08.2019 00:00:00 16,3 8,8 22 12 40 21 W 1008,4 36 0,0
14.08.2019 23:00:00 16,5 10,1 26 14 41 22 WZW 1008,2 32 0,0
14.08.2019 22:00:00 16,3 11,2 26 14 44 24 WZW 1008,3 23 0,0
14.08.2019 21:00:00 16,3 11,0 22 12 39 21 WZW 1008,3 20 0,0
14.08.2019 20:00:00 16,7 11,2 26 14 40 22 ZW 1008,3 23 0,0
14.08.2019 19:00:00 17,2 10,6 24 13 43 23 WZW 1008,2 24 0,0
14.08.2019 18:00:00 17,5 10,1 26 14 40 22 WZW 1008,4 28 0,0
14.08.2019 17:00:00 17,5 10,4 23 13 37 20 WZW 1008,6 29 0,0
14.08.2019 16:00:00 17,7 6,5 23 12 32 17 WZW 1008,4 38 0,0
14.08.2019 15:00:00 17,6 6,5 16 9 27 14 WZW 1008,5 42 0,0
14.08.2019 14:00:00 17,1 6,9 15 8 25 14 WZW 1008,5 35 0,0
14.08.2019 13:00:00 16,3 7,2 16 8 22 12 W 1008,2 44 0,0
14.08.2019 12:00:00 16,4 7,6 12 6 25 14 WNW 1008,0 35 0,0
14.08.2019 11:00:00 16,0 7,7 16 8 29 15 WNW 1007,7 38 0,0
14.08.2019 10:00:00 15,3 7,3 18 10 30 16 W 1007,2 39 0,0
14.08.2019 09:00:00 14,2 7,5 18 10 29 15 W 1006,7 47 0,0
14.08.2019 08:00:00 14,1 6,7 21 11 31 17 WNW 1006,3 45 0,0
14.08.2019 07:00:00 13,9 6,7 21 12 33 18 W 1005,7 50 0,0
14.08.2019 06:00:00 14,0 6,8 23 12 35 19 W 1005,2 50 0,0
14.08.2019 05:00:00 14,2 7,0 23 12 34 19 W 1005,1 50 0,0
14.08.2019 04:00:00 14,6 7,4 23 12 38 20 W 1004,9 50 0,0
14.08.2019 03:00:00 14,8 7,6 25 14 37 20 W 1004,6 50 0,0
14.08.2019 02:00:00 15,1 7,6 23 12 42 23 W 1004,6 42 0,0
14.08.2019 01:00:00 15,7 7,5 27 15 39 21 W 1004,4 46 0,0
14.08.2019 00:00:00 16,3 6,7 26 14 40 22 W 1004,4 50 0,0
13.08.2019 23:00:00 16,9 8,3 29 16 42 23 W 1004,1 39 0,0

tt = temperatuur
td = dauwpunt
ff = windsnelheid
fx = windstoten
dd = windrichting
ppp = luchtdruk
vv = zicht
rr = neerslag

Weerstations in de omgeving